IRIDIUM 51 [-] (25262 NORAD) Tracking and Keplerian Element Data

This shows tracking and keplerian element data for the satellite.

Feedback or suggestion? Click here.




ElementValue
Catalog25262
NameIRIDIUM 51 [-]
Epoch Orbit9125
Epoch Day348.83221333
Epoch Year2018
RAAN76.1678
Inclination86.4004
Eccentricity0.0206728
Argument of Perigee195.6917
Mean Anonmoly163.7843
Mean Motion14.8828898
Decay Rate9.64E-06
L11 25262U 98018A 18348.83221333 .00000964 00000-0 67098-4 0 9995
L22 25262 86.4004 76.1678 0206728 195.6917 163.7843 14.88288980 91254

Live tracking and technical data element details for IRIDIUM 51 [-] (NORAD 25262). IRIDIUM 51 [-] can be tracked NOW for your location showing map with azimuth and elevation plus other details from your city location.

Track the satellite on the map from your city or location and see movement details for azimuth, elevation, latitude, longitude, range, height, and movement on the map or in text.







IsCatalogInMostPopularTable: catalog: 25262, numindb: 51
Update: records affected: 1



GetName: 25262 IRIDIUM 51 [-]

Hit Count: updated at: Sat, 15 Dec 2018 18:26:22 GMT